Regional Weather Roundup
Issued by NWS

Home | Current Version | Previous Version | Text Only | Print | Product List | Glossary On
Versions: 1 2 3 4 5 6 7 8 9 10 11 12 13 14 15 16 17 18 19 20 21 22 23 24 25 26 27
000
ASUS44 KBMX 030910
RWRAL

ALABAMA REGIONAL WEATHER ROUNDUP
NATIONAL WEATHER SERVICE BIRMINGHAM AL
400 AM CDT TUE AUG 03 2021

NOTE: "FAIR" INDICATES FEW OR NO CLOUDS BELOW 12,000 FEET
WITH NO SIGNIFICANT WEATHER AND/OR OBSTRUCTIONS TO VISIBILITY.

THE REMARK "TC" DENOTES TEMPERATURE IN DEGREES CELSIUS.

ALZ001>011-014-016>018-020-031000-
NORTH ALABAMA

CITY           SKY/WX    TMP DP  RH WIND       PRES   REMARKS
MUSCLE SHOALS  NOT AVBL
HUNTSVILLE     CLEAR     67  64  90 CALM      29.99S
DECATUR        CLEAR     65  63  93 N3        29.99S
HALEYVILLE     FAIR      67  65  93 N3        30.02F FOG
GADSDEN        MOCLDY    70  70 100 N5        29.97F
$$

ALZ012-013-022-023-030>036-040>044-031000-
WEST CENTRAL ALABAMA

CITY           SKY/WX    TMP DP  RH WIND       PRES   REMARKS
TUSCALOOSA     CLEAR     72  71  97 CALM      29.96F FOG
DEMOPOLIS      FAIR     N/A N/A N/A MISG      29.96S HAZE
$$

ALZ015-024>026-033>036-041>044-031000-
CENTRAL ALABAMA

CITY           SKY/WX    TMP DP  RH WIND       PRES   REMARKS
BIRMINGHAM     PTCLDY    71  68  90 CALM      30.00R
MONTGOMERY     MOCLDY    71  68  90 CALM      29.95F
SHELBY CO ARPT PTCLDY    72  70  93 CALM      29.97S FOG
MAXWELL AFB    CLOUDY    70  69  98 CALM      29.93F
GREENVILLE     CLOUDY    71  66  84 N3        29.95F HAZE
SELMA          FAIR      72  72 100 CALM      29.96R FOG
PRATTVILLE     FAIR      67  67 100 CALM      29.95S FOG
BESSEMER       MOCLDY    71  71 100 CALM      29.98F FOG
TALLADEGA      MOCLDY    70  70  99 CALM      29.98S FOG
PELL CITY      MOCLDY    70  70 100 CALM      29.97F FOG
SYLACAUGA      CLOUDY    71  71  99 CALM      29.98S FOG
$$

ALZ019-021-028-029-037-038-045>048-031000-
EAST CENTRAL ALABAMA

CITY           SKY/WX    TMP DP  RH WIND       PRES   REMARKS
ANNISTON       CLOUDY    73  71  93 CALM      29.97F
ALEXANDER CITY PTCLDY    72  72  99 CALM      29.96F
AUBURN         MOCLDY    70  69  97 N3        29.98S
$$

ALZ051>064-031000-
SOUTHWEST ALABAMA

CITY           SKY/WX    TMP DP  RH WIND       PRES   REMARKS
MOBILE         CLOUDY    73  72  96 NE5       29.93F
BROOKLEY FIELD MOCLDY    76  74  93 N6        29.93F
EVERGREEN      CLOUDY    74  71  91 CALM      29.95F
$$

ALZ049-050-065>069-031000-
SOUTHEAST ALABAMA

CITY           SKY/WX    TMP DP  RH WIND       PRES   REMARKS
DOTHAN         MOCLDY    74  73  97 W3        29.97S
OZARK          MOCLDY    72  72  99 CALM      29.93S
TROY           CLOUDY    72  67  84 CALM      29.96S
EUFAULA        CLOUDY    73  70  90 CALM      29.95R
$$



USA.gov is the U.S. government's official web portal to all federal, state and local government web resources and services.